Regional Weather Roundup
Issued by NWS Columbia, SC

Home | Current Version | Previous Version | Text Only | Print | Product List | Glossary On
Versions: 1 2 3 4 5 6 7 8 9 10 11 12 13 14 15 16 17 18 19 20 21 22 23 24 25 26 27 28 29 30 31 32 33 34 35 36 37 38 39 40 41 42 43 44 45 46 47 48 49 50
000
ASUS42 KCAE 290010
RWRCAE
REGIONAL WEATHER ROUNDUP
NATIONAL WEATHER SERVICE COLUMBIA SC
700 PM EST WED JAN 28 2015

NOTE: "FAIR" INDICATES FEW OR NO CLOUDS BELOW 12,000 FEET WITH NO
SIGNIFICANT WEATHER AND/OR OBSTRUCTIONS TO VISIBILITY.

NOT ALL STATIONS ARE QUALITY CONTROLLED BY THE NATIONAL
WEATHER SERVICE. USE DATA WITH CAUTION...ESPECIALLY
DEWPOINT OBSERVATIONS.

SCZ001>056-GAZ040-063>065-077-290100-
...UPSTATE SOUTH CAROLINA...

CITY           SKY/WX    TMP DP  RH WIND       PRES   REMARKS
ANDERSON       CLEAR     43  18  36 CALM      30.25R
6HR MIN TEMP:  42; 6HR MAX TEMP:  52;

LIBERTY        CLEAR     41  25  52 MISG      30.24R
6HR MIN TEMP:  20; 6HR MAX TEMP:  56;

SPARTANBURG    CLEAR     43  18  36 CALM      30.25R
CLEMSON        CLEAR     46  17  31 CALM      30.25R
6HR MIN TEMP:  46; 6HR MAX TEMP:  53;

GREENVILLE     CLEAR     46  13  26 S3        30.25R
6HR MIN TEMP:  45; 6HR MAX TEMP:  52;

GREENWOOD      CLEAR     42  19  39 CALM      30.27R
6HR MIN TEMP:  41; 6HR MAX TEMP:  53;

GREER          CLEAR     43  14  31 S3        30.23R
6HR MIN TEMP:  43; 6HR MAX TEMP:  52;

ROCK HILL      CLEAR     37  20  50 CALM      30.27R
6HR MIN TEMP:  35; 6HR MAX TEMP:  49;

CHESTER        CLEAR     37  21  52 CALM      30.27S
LAURENS        CLEAR     39  28  65 SE3       30.26R


...CENTRAL SOUTH CAROLINA...

CITY           SKY/WX    TMP DP  RH WIND       PRES   REMARKS
COLUMBIA APT   CLEAR     41  27  57 CALM      30.28R
6HR MIN TEMP:  39; 6HR MAX TEMP:  52;

COLUMBIA OWENS CLEAR     41  25  53 CALM      30.30R
6HR MIN TEMP:  41; 6HR MAX TEMP:  52;

DARLINGTON     CLEAR     37  27  65 CALM      30.30S
6HR MIN TEMP:  37; 6HR MAX TEMP:  48;

FLORENCE       CLEAR     39  24  55 CALM      30.29R
6HR MIN TEMP:  39; 6HR MAX TEMP:  49;

ORANGEBURG     CLEAR     38  24  57 CALM      30.29R
6HR MIN TEMP:  37; 6HR MAX TEMP:  50;

SUMTER SHAW    CLEAR     39  24  54 CALM      30.27R
6HR MIN TEMP:  38; 6HR MAX TEMP:  49; 6HR PCP: TRACE;

NEWBERRY       CLEAR     37  21  52 E3        30.29S
AIKEN          FAIR      37  28  70 CALM      30.30S
BARNWELL       FAIR      39  28  65 CALM      30.29R
MANNING        FAIR      36  28  75 CALM      30.29S
CAMDEN         FAIR      37  27  65 CALM      30.29R
LANCASTER      CLEAR     37  21  52 CALM      30.28R
WINNSBORO      CLEAR     39  27  60 CALM      30.27R


...EASTERN AND COASTAL SOUTH CAROLINA...

CITY           SKY/WX    TMP DP  RH WIND       PRES   REMARKS
MYRTLE BEACH   CLEAR     37  18  44 CALM      30.32R
N MYRTLE BCH   CLEAR     38  21  50 CALM      30.30R
6HR MIN TEMP:  38; 6HR MAX TEMP:  48;

CONWAY         FAIR      34  28  80 CALM      30.31R
MARION         FAIR      36  25  64 CALM      30.30S
HARTSVILLE     FAIR      36  32  87 CALM      30.29S
FLORENCE       CLEAR     39  24  55 CALM      30.29R
6HR MIN TEMP:  39; 6HR MAX TEMP:  49;

DARLINGTON     CLEAR     37  27  65 CALM      30.30S
6HR MIN TEMP:  37; 6HR MAX TEMP:  48;

CHARLESTON APT CLEAR     39  24  55 CALM      30.31R
6HR MIN TEMP:  39; 6HR MAX TEMP:  49;

MOUNT PLEASANT LGT RAIN N/A N/A N/A CALM      30.30R
BEAUFORT       CLEAR     42  28  57 CALM      30.30R
6HR MIN TEMP:  42; 6HR MAX TEMP:  51;



...EASTERN GEORGIA...

CITY           SKY/WX    TMP DP  RH WIND       PRES   REMARKS
AUGUSTA BUSH F CLEAR     37  23  56 CALM      30.28R
6HR MIN TEMP:  37; 6HR MAX TEMP:  53;

THOMSON        CLEAR     42  31  65 CALM      30.32R
6HR MIN TEMP:  42; 6HR MAX TEMP:  55;

WASHINGTON     FAIR      43  34  70 CALM      30.26S
CLAXTON        FAIR      39  32  75 CALM      30.29R
SYLVANIA       CLEAR     38  31  76 CALM      30.30R
6HR MIN TEMP:  38; 6HR MAX TEMP:  51;

STATESBORO     CLEAR     36  31  82 CALM      30.29R
6HR MIN TEMP:  36; 6HR MAX TEMP:  52;

SAVANNAH       PTCLDY    43  24  47 CALM      30.30R
6HR MIN TEMP:  42; 6HR MAX TEMP:  53;



...SOUTHERN NORTH CAROLINA...

CITY           SKY/WX    TMP DP  RH WIND       PRES   REMARKS
CHARLOTTE      PTCLDY    42  15  33 CALM      30.27R
6HR MIN TEMP:  42; 6HR MAX TEMP:  49;

MONROE         CLEAR     38  18  44 CALM      30.26R
6HR MIN TEMP:  38; 6HR MAX TEMP:  48;

WADESBORO      CLEAR     34  24  67 CALM      30.29R
6HR MIN TEMP:  34; 6HR MAX TEMP:  47;

ROCKINGHAM       N/A     38  21  49 CALM      30.28S
6HR MIN TEMP:  38; 6HR MAX TEMP:  46;

RUTHERFORDTON  CLEAR     44  13  29 CALM      30.25R
6HR MIN TEMP:  44; 6HR MAX TEMP:  50;

ASHEVILLE      CLEAR     38  15  39 N9        30.22R WCI  31
6HR MIN TEMP:  36; 6HR MAX TEMP:  46;


$$


USA.gov is the U.S. government's official web portal to all federal, state and local government web resources and services.